Location: Clifton Park
(41.4873°N, 81.8024°W)
Time: 15:58:22
(UTC+00:00)

CZ-3 R/B - Pass Details

Date: 21 January 2020
Orbit: 346 x 10270 km, 28.4° (Epoch: 21 February)

Event Time Altitude Azimuth Distance (km) Brightness Sun altitude
Exits shadow 09:45:51 36° 231° (SW) 5,015 4.6 -33.9°
Maximum altitude 09:53:29 47° 188° (S) 3,104 3.9 -32.5°
Drops below altitude 10° 10:01:48 10° 116° (ESE) 3,271 5.0 -30.9°
Sets 10:03:42 0° 109° (ESE) 3,790 5.6 -30.6°
